sat.trackr.live / text

‹ back to catalog

IRIDE-MS1-EAGLET 2-15

NORAD 68462 · 2026-067AY

PAYLOAD ACTIVE UNKNOWN

§ Identity

Operator
Country
IT
Launch date
2026-03-30
Launch site
AFWTR
Launch vehicle
Mass (kg)
RCS (m²)

External: N2YO · Heavens-Above · Gunter

§ Orbital elements

Epoch: 2026-09-19T04:29:54.333024Z

Period
94.75 min
Inclination
97.4651°
Eccentricity
0.0004863
Mean motion
15.19740440 rev/d
Perigee alt
503.3 km
Apogee alt
510.0 km
Semi-major
6,884.8 km
B*
2.2935e-4
RAAN
219.5222°
Arg perigee
72.2540°
Mean anomaly
287.9225°
Rev number
2,621

§ Raw data

IRIDE-MS1-EAGLET 2-151 68462U 26067AY  26262.18743441  .00004835  00000+0  22935-3 0  99902 68462  97.4651 219.5222 0004863  72.2540 287.9225 15.19740440 26215

JSON: /api/v1/satellites/68462 · /tle

For live sub-satellite position, see the globe view (requires WebGL).

§ Visibility from observer

Set your observer location to see the next 7 days of passes ≥ 10°. The values pass through the URL so the page stays shareable.

No JS? Fill the form by hand. The geolocation button needs JavaScript.